sat.trackr.live / text

‹ back to catalog

STARLINK-5367

NORAD 55501 · 2023-015BE

PAYLOAD ACTIVE UNKNOWN

§ Identity

Operator
Country
US
Launch date
2023-02-02
Launch site
AFETR
Launch vehicle
Mass (kg)
RCS (m²)

Purposes: comms

External: N2YO · Heavens-Above · Gunter

§ Orbital elements

Epoch: 2026-05-24T18:03:58.813920Z

Period
94.27 min
Inclination
43.0034°
Eccentricity
0.0001544
Mean motion
15.27573038 rev/d
Perigee alt
482.0 km
Apogee alt
484.1 km
Semi-major
6,861.2 km
B*
1.1838e-4
RAAN
270.5312°
Arg perigee
263.1289°
Mean anomaly
96.9387°
Rev number
18,222

§ Raw data

STARLINK-53671 55501U 23015BE  26144.75276405  .00002996  00000+0  11838-3 0  99992 55501  43.0034 270.5312 0001544 263.1289  96.9387 15.27573038182225

JSON: /api/v1/satellites/55501 · /tle

For live sub-satellite position, see the globe view (requires WebGL).

§ Visibility from observer

Set your observer location to see the next 7 days of passes ≥ 10°. The values pass through the URL so the page stays shareable.

No JS? Fill the form by hand. The geolocation button needs JavaScript.